Flag for U.S.A. Weather past 2 weeks in Barnstable, Massachusetts, U.S.A.

Now
77 °F

Sunny.


Feels Like: 79 °F
Forecast: 71 / 82 °F
Wind: 24 mph from Southwest

Location: Barnstable Municipal-Boardman Airport

Current Time: Jul 23, 2014 at 10:46:28 AM

Latest Report: Jul 23, 2014 at 9:56 AM


Visibility: 10 mi

Pressure: 29.94 "Hg

Humidity: 74%

Dew point: 68 °F

Location of BarnstableLocation

Historic Weather in Barnstable — Graph

°F

Barnstable temperature yesterday

Maximum temperature yesterday: 78 °F (at 12:56 PM)
Minimum temperature yesterday: 57 °F (at 4:56 AM)
Average temperature yesterday: 68 °F

Past Weeks' High & Low Weather Summary

 TemperatureHumidityPressure
High79 °F (Jul 8, 10:56 AM)97% (Jul 9, 10:56 PM)30.26 "Hg (Jul 9, 10:56 PM)
Low57 °F (Jul 19, 3:56 AM)39% (Jul 10, 1:56 PM)29.74 "Hg (Jul 9, 2:56 AM)
Average71 °F80%30.04 "Hg
* Reported Jul 8 8:56 AM — Jul 23 8:56 AM, Barnstable, Weather by CustomWeather, © 2014

Note: Actual official high and low records may vary slightly from our data, if they occured in-between our weather recording intervals... More about our weather records

Advertising

Barnstable weather history for previous 24 hours

 ConditionsComfort  
Time TempWeatherWind HumidityBarometerVisibility
8:56 AM
Jul 23
76 °FSunny.23 mph77%29.95 "Hg10 mi
7:56 AM75 °FSunny.17 mph79%29.96 "Hg10 mi
6:56 AM72 °FScattered clouds.20 mph87%29.96 "Hg10 mi
5:56 AM71 °FClear.12 mph87%29.96 "Hg10 mi
4:56 AM71 °FClear.10 mph84%29.98 "Hg10 mi
3:56 AM71 °FClear.9 mph78%29.98 "Hg10 mi
1:56 AM71 °FClear.13 mph73%30.00 "Hg10 mi
12:56 AM71 °FClear.12 mph73%30.01 "Hg10 mi
11:56 PM
Jul 22
71 °FClear.12 mph73%30.03 "Hg10 mi
10:56 PM71 °FClear.9 mph81%30.04 "Hg10 mi
9:56 PM71 °FClear.15 mph84%30.05 "Hg10 mi
8:56 PM72 °FSunny.16 mph81%30.05 "Hg10 mi
7:56 PM73 °FSunny.18 mph79%30.05 "Hg10 mi
12:56 PM78 °FSunny.9 mph71%30.11 "Hg10 mi
11:56 AM77 °FSunny.7 mph74%30.13 "Hg10 mi
10:56 AM77 °FSunny.7 mph71%30.13 "Hg10 mi
Weather by CustomWeather, © 2014

See weather overviewHow to use our weather pages